Starlink 32841

operational
NORAD ID: 62865 Int'l Des: 2025-022 Owner: SPXS Country: US Constellation: starlink
LEOCIRCULAR

Starlink 32841について

説明を読み込み中...

リアルタイム位置

3D地球を読み込み中...

次回通過

高度履歴

Altitude vs Time

uPlot chart will show altitude changes over time

軌道要素

1 62865U 25022M 26033.44360889 .00023498 00000-0 80229-3 0 9994
2 62865 53.1599 293.3434 0001259 94.8456 265.2688 15.30227519 56498
Epoch: Feb 2, 2026 • Age: 18 hours

現在のステータス

高度 488.4 km
速度 7.62 km/s
衛星直下点 -39.04°S, 59.86°W
打ち上げ日 Feb 2, 2025
運用期間 0.9 years
タイプ internet

技術仕様

分類 Payload
質量 730.00 kg
乾燥質量 700.00 kg
総質量 730.00 kg
長さ 0.30 m
直径 4.10 m
スパン 29.00 m
形状 Box + pan
製造者 SPXS
バスタイプ Starlink V2M
フェーズステータス In Orbit
所有者/国 SPXS/US

大規模コンステレーション

Loading constellations...